Time,TemperatureF,DewpointF,PressureIn,WindDirection,WindDirectionDegrees,WindSpeedMPH,WindSpeedGustMPH,Humidity,HourlyPrecipIn,Conditions,Clouds,dailyrainin,SoftwareType,DateUTC
2013-04-22 00:05:00,68.7,67.8,30.08,East,96,0.0,0.0,97,0.00,,,0.00,Wunderground v.1.15,2013-04-22 04:05:00,
2013-04-22 00:10:00,68.8,68.2,30.08,East,96,0.0,0.0,98,0.00,,,0.00,Wunderground v.1.15,2013-04-22 04:10:00,
2013-04-22 00:15:00,68.7,68.0,30.09,East,96,0.0,1.0,97,0.00,,,0.00,weatherlink.com 1.10,2013-04-22 04:15:00,
2013-04-22 00:20:00,68.6,67.7,30.09,East,96,0.0,0.0,97,0.00,,,0.00,Wunderground v.1.15,2013-04-22 04:20:00,
2013-04-22 00:30:00,68.6,67.7,30.08,East,96,0.0,0.0,97,0.00,,,0.00,Wunderground v.1.15,2013-04-22 04:30:00,
2013-04-22 00:35:00,68.6,67.7,30.07,East,96,0.0,0.0,97,0.00,,,0.00,Wunderground v.1.15,2013-04-22 04:35:00,
2013-04-22 00:40:00,68.8,68.2,30.07,East,96,0.0,0.0,98,0.00,,,0.00,Wunderground v.1.15,2013-04-22 04:40:00,
2013-04-22 00:45:00,68.9,68.3,30.07,East,96,0.0,0.0,98,0.00,,,0.00,Wunderground v.1.15,2013-04-22 04:45:00,
2013-04-22 00:50:00,68.9,68.3,30.07,East,96,0.0,0.0,98,0.00,,,0.00,Wunderground v.1.15,2013-04-22 04:50:00,
2013-04-22 00:55:00,68.9,68.3,30.07,East,96,0.0,0.0,98,0.00,,,0.00,Wunderground v.1.15,2013-04-22 04:55:00,
2013-04-22 01:04:00,69.0,68.0,30.07,East,96,0.0,0.0,98,0.00,,,0.00,weatherlink.com 1.10,2013-04-22 05:04:00,
2013-04-22 01:10:00,69.0,68.4,30.07,East,98,0.0,1.0,98,0.00,,,0.00,Wunderground v.1.15,2013-04-22 05:10:00,
2013-04-22 01:15:00,69.0,68.4,30.07,East,98,1.0,1.0,98,0.00,,,0.01,Wunderground v.1.15,2013-04-22 05:15:00,
2013-04-22 01:20:00,69.0,68.4,30.07,ESE,102,1.0,2.0,98,0.00,,,0.01,Wunderground v.1.15,2013-04-22 05:20:00,
2013-04-22 01:30:00,69.0,68.4,30.07,ESE,106,1.0,1.0,98,0.07,,,0.02,Wunderground v.1.15,2013-04-22 05:30:00,
2013-04-22 01:35:00,68.9,68.3,30.07,ESE,106,0.0,1.0,98,0.05,,,0.02,Wunderground v.1.15,2013-04-22 05:35:00,
2013-04-22 01:40:00,69.0,68.4,30.07,ESE,106,0.0,0.0,98,0.04,,,0.03,Wunderground v.1.15,2013-04-22 05:40:00,
2013-04-22 01:45:00,69.2,68.6,30.07,ESE,105,0.0,2.0,98,0.04,,,0.03,Wunderground v.1.15,2013-04-22 05:45:00,
2013-04-22 01:50:00,69.2,68.6,30.08,East,97,1.0,1.0,98,0.04,,,0.03,Wunderground v.1.15,2013-04-22 05:50:00,
2013-04-22 02:00:00,69.0,68.4,30.08,East,99,1.0,2.0,98,0.13,,,0.05,Wunderground v.1.15,2013-04-22 06:00:00,
2013-04-22 02:05:00,69.0,68.4,30.08,East,97,0.0,2.0,98,0.10,,,0.05,Wunderground v.1.15,2013-04-22 06:05:00,
2013-04-22 02:10:00,69.1,68.5,30.08,East,97,0.0,0.0,98,0.08,,,0.06,Wunderground v.1.15,2013-04-22 06:10:00,
2013-04-22 02:15:00,69.1,68.5,30.08,East,100,0.0,0.0,98,0.07,,,0.06,Wunderground v.1.15,2013-04-22 06:15:00,
2013-04-22 02:20:00,69.0,68.4,30.08,East,100,0.0,0.0,98,0.06,,,0.07,Wunderground v.1.15,2013-04-22 06:20:00,
2013-04-22 02:26:00,69.0,68.0,30.07,East,99,0.0,1.0,98,0.06,,,0.08,weatherlink.com 1.10,2013-04-22 06:26:00,
2013-04-22 02:35:00,68.9,68.3,30.07,East,98,0.0,0.0,98,0.10,,,0.09,Wunderground v.1.15,2013-04-22 06:35:00,
2013-04-22 02:40:00,68.8,68.2,30.07,ESE,102,0.0,0.0,98,0.06,,,0.10,Wunderground v.1.15,2013-04-22 06:40:00,
2013-04-22 02:45:00,69.0,68.4,30.06,ESE,103,1.0,4.0,98,0.06,,,0.10,Wunderground v.1.15,2013-04-22 06:45:00,
2013-04-22 02:50:00,68.8,68.2,30.06,East,101,2.0,2.0,98,0.06,,,0.10,Wunderground v.1.15,2013-04-22 06:50:00,
2013-04-22 02:58:00,68.8,68.0,30.06,East,101,1.0,2.0,98,0.06,,,0.10,weatherlink.com 1.10,2013-04-22 06:58:00,
2013-04-22 03:05:00,68.7,68.1,30.06,East,100,0.0,0.0,98,0.00,,,0.11,Wunderground v.1.15,2013-04-22 07:05:00,
2013-04-22 03:10:00,68.7,68.1,30.05,East,100,0.0,0.0,98,0.07,,,0.12,Wunderground v.1.15,2013-04-22 07:10:00,
2013-04-22 03:15:00,68.8,68.2,30.05,East,100,0.0,0.0,98,0.09,,,0.13,Wunderground v.1.15,2013-04-22 07:15:00,
2013-04-22 03:20:00,68.6,68.0,30.05,East,101,0.0,0.0,98,0.09,,,0.13,Wunderground v.1.15,2013-04-22 07:20:00,
2013-04-22 03:30:00,68.6,68.0,30.04,East,101,0.0,0.0,98,0.08,,,0.14,Wunderground v.1.15,2013-04-22 07:30:00,
2013-04-22 03:35:00,68.6,68.0,30.04,East,101,0.0,0.0,98,0.05,,,0.15,Wunderground v.1.15,2013-04-22 07:35:00,
2013-04-22 03:40:00,68.6,68.0,30.03,East,101,0.0,1.0,98,0.05,,,0.15,Wunderground v.1.15,2013-04-22 07:40:00,
2013-04-22 03:45:00,68.7,68.1,30.03,East,101,1.0,2.0,98,0.05,,,0.15,Wunderground v.1.15,2013-04-22 07:45:00,
2013-04-22 03:55:00,68.6,68.0,30.03,East,101,2.0,3.0,98,0.00,,,0.15,Wunderground v.1.15,2013-04-22 07:55:00,
2013-04-22 04:00:00,68.8,68.2,30.03,East,101,2.0,2.0,98,0.00,,,0.15,Wunderground v.1.15,2013-04-22 08:00:00,
2013-04-22 04:05:00,68.7,68.1,30.04,ESE,105,3.0,3.0,98,0.00,,,0.15,Wunderground v.1.15,2013-04-22 08:05:00,
2013-04-22 04:10:00,68.5,67.9,30.04,East,101,3.0,3.0,98,0.00,,,0.16,Wunderground v.1.15,2013-04-22 08:10:00,
2013-04-22 04:20:00,68.5,68.0,30.03,East,101,0.0,4.0,98,0.03,,,0.16,weatherlink.com 1.10,2013-04-22 08:20:00,
2013-04-22 04:25:00,68.4,67.8,30.03,East,101,0.0,1.0,98,0.00,,,0.16,Wunderground v.1.15,2013-04-22 08:25:00,
2013-04-22 04:30:00,68.4,67.8,30.02,East,100,0.0,0.0,98,0.00,,,0.16,Wunderground v.1.15,2013-04-22 08:30:00,
2013-04-22 04:35:00,68.6,68.3,30.02,ESE,107,1.0,2.0,99,0.00,,,0.16,Wunderground v.1.15,2013-04-22 08:35:00,
2013-04-22 04:40:00,68.7,68.4,30.01,ESE,110,2.0,2.0,99,0.00,,,0.16,Wunderground v.1.15,2013-04-22 08:40:00,
2013-04-22 04:50:00,68.8,68.5,30.01,East,97,3.0,3.0,99,0.00,,,0.16,Wunderground v.1.15,2013-04-22 08:50:00,
2013-04-22 04:55:00,68.8,68.2,30.01,East,101,3.0,3.0,98,0.00,,,0.16,Wunderground v.1.15,2013-04-22 08:55:00,
2013-04-22 05:00:00,68.6,68.0,30.01,ESE,103,3.0,3.0,98,0.00,,,0.16,Wunderground v.1.15,2013-04-22 09:00:00,
2013-04-22 05:05:00,68.8,68.5,30.01,ESE,106,3.0,3.0,99,0.00,,,0.16,Wunderground v.1.15,2013-04-22 09:05:00,
2013-04-22 05:15:00,68.6,68.0,30.02,East,101,3.0,4.0,98,0.00,,,0.16,Wunderground v.1.15,2013-04-22 09:15:00,
2013-04-22 05:20:00,68.6,68.0,30.02,East,100,3.0,3.0,98,0.00,,,0.16,Wunderground v.1.15,2013-04-22 09:20:00,
2013-04-22 05:25:00,68.7,68.4,30.02,ESE,104,2.0,3.0,99,0.00,,,0.16,Wunderground v.1.15,2013-04-22 09:25:00,
2013-04-22 05:30:00,68.8,68.5,30.02,ESE,109,3.0,5.0,99,0.00,,,0.16,Wunderground v.1.15,2013-04-22 09:30:00,
2013-04-22 05:35:00,68.9,68.6,30.02,ESE,103,3.0,5.0,99,0.00,,,0.16,Wunderground v.1.15,2013-04-22 09:35:00,
2013-04-22 05:40:00,68.8,68.5,30.02,ESE,111,3.0,3.0,99,0.00,,,0.16,Wunderground v.1.15,2013-04-22 09:40:00,
2013-04-22 05:50:00,68.8,68.5,30.02,ESE,115,2.0,2.0,99,0.00,,,0.16,Wunderground v.1.15,2013-04-22 09:50:00,
2013-04-22 05:55:00,68.8,68.5,30.02,ESE,108,3.0,4.0,99,0.00,,,0.16,Wunderground v.1.15,2013-04-22 09:55:00,
2013-04-22 06:05:00,68.8,68.5,30.02,ESE,110,2.0,2.0,99,0.00,,,0.16,Wunderground v.1.15,2013-04-22 10:05:00,
2013-04-22 06:10:00,68.8,68.5,30.02,ESE,116,2.0,2.0,99,0.00,,,0.16,Wunderground v.1.15,2013-04-22 10:10:00,
2013-04-22 06:15:00,68.8,68.5,30.03,ESE,106,3.0,4.0,99,0.00,,,0.16,Wunderground v.1.15,2013-04-22 10:15:00,
2013-04-22 06:20:00,68.8,68.5,30.03,ESE,122,3.0,4.0,99,0.00,,,0.16,Wunderground v.1.15,2013-04-22 10:20:00,
2013-04-22 06:25:00,68.8,68.2,30.03,ESE,112,3.0,4.0,98,0.00,,,0.16,Wunderground v.1.15,2013-04-22 10:25:00,
2013-04-22 06:30:00,68.8,68.2,30.03,ESE,104,3.0,4.0,98,0.00,,,0.16,Wunderground v.1.15,2013-04-22 10:30:00,
2013-04-22 06:35:00,68.7,68.1,30.03,ESE,109,3.0,4.0,98,0.00,,,0.16,Wunderground v.1.15,2013-04-22 10:35:00,
2013-04-22 06:45:00,68.7,68.1,30.03,ESE,107,4.0,4.0,98,0.00,,,0.16,Wunderground v.1.15,2013-04-22 10:45:00,
2013-04-22 06:50:00,68.7,68.1,30.03,ESE,113,3.0,4.0,98,0.00,,,0.16,Wunderground v.1.15,2013-04-22 10:50:00,
2013-04-22 06:55:00,68.8,68.5,30.03,ESE,115,3.0,3.0,99,0.00,,,0.16,Wunderground v.1.15,2013-04-22 10:55:00,
2013-04-22 07:00:00,68.8,68.2,30.03,ESE,106,3.0,3.0,98,0.00,,,0.16,Wunderground v.1.15,2013-04-22 11:00:00,
2013-04-22 07:05:00,68.8,68.2,30.04,ESE,109,4.0,6.0,98,0.00,,,0.16,Wunderground v.1.15,2013-04-22 11:05:00,
2013-04-22 07:15:00,68.9,68.3,30.04,ESE,110,4.0,5.0,98,0.00,,,0.16,Wunderground v.1.15,2013-04-22 11:15:00,
2013-04-22 07:20:00,68.8,68.2,30.04,ESE,107,4.0,4.0,98,0.00,,,0.16,Wunderground v.1.15,2013-04-22 11:20:00,
2013-04-22 07:25:00,68.8,68.2,30.04,SE,124,4.0,4.0,98,0.00,,,0.16,Wunderground v.1.15,2013-04-22 11:25:00,
2013-04-22 07:30:00,68.8,68.2,30.04,ESE,107,4.0,4.0,98,0.00,,,0.16,Wunderground v.1.15,2013-04-22 11:30:00,
2013-04-22 07:35:00,68.8,68.2,30.05,ESE,115,4.0,4.0,98,0.00,,,0.16,Wunderground v.1.15,2013-04-22 11:35:00,
2013-04-22 07:45:00,68.8,67.9,30.05,East,101,3.0,4.0,97,0.00,,,0.16,Wunderground v.1.15,2013-04-22 11:45:00,
2013-04-22 07:50:00,68.8,68.2,30.05,ESE,111,4.0,4.0,98,0.00,,,0.16,Wunderground v.1.15,2013-04-22 11:50:00,
2013-04-22 07:55:00,68.9,68.3,30.05,ESE,108,4.0,4.0,98,0.00,,,0.16,Wunderground v.1.15,2013-04-22 11:55:00,
2013-04-22 08:00:00,68.9,68.0,30.05,ESE,107,4.0,8.0,97,0.00,,,0.16,Wunderground v.1.15,2013-04-22 12:00:00,
2013-04-22 08:08:00,69.1,69.0,30.05,ESE,105,6.0,10.0,98,0.00,,,0.16,weatherlink.com 1.10,2013-04-22 12:08:00,
2013-04-22 08:15:00,68.9,68.0,30.05,ESE,112,6.0,9.0,97,0.00,,,0.16,Wunderground v.1.15,2013-04-22 12:15:00,
2013-04-22 08:20:00,69.0,68.1,30.05,ESE,117,7.0,9.0,97,0.00,,,0.16,Wunderground v.1.15,2013-04-22 12:20:00,
2013-04-22 08:25:00,69.2,68.3,30.05,ESE,118,7.0,9.0,97,0.00,,,0.16,Wunderground v.1.15,2013-04-22 12:25:00,
2013-04-22 08:30:00,69.5,68.6,30.05,ESE,108,6.0,6.0,97,0.00,,,0.16,Wunderground v.1.15,2013-04-22 12:30:00,
2013-04-22 08:40:00,69.1,68.2,30.05,ESE,120,9.0,9.0,97,0.00,,,0.16,Wunderground v.1.15,2013-04-22 12:40:00,
2013-04-22 08:45:00,69.0,68.1,30.05,ESE,102,8.0,9.0,97,0.00,,,0.16,Wunderground v.1.15,2013-04-22 12:45:00,
2013-04-22 08:50:00,68.9,68.0,30.05,East,94,8.0,9.0,97,0.00,,,0.16,Wunderground v.1.15,2013-04-22 12:50:00,
2013-04-22 08:57:00,69.0,68.0,30.05,SE,132,9.0,11.0,97,0.00,,,0.16,weatherlink.com 1.10,2013-04-22 12:57:00,
2013-04-22 09:05:00,69.1,68.2,30.06,ESE,122,7.0,7.0,97,0.00,,,0.16,Wunderground v.1.15,2013-04-22 13:05:00,
2013-04-22 09:10:00,69.4,68.5,30.06,ESE,113,8.0,8.0,97,0.00,,,0.16,Wunderground v.1.15,2013-04-22 13:10:00,
2013-04-22 09:15:00,69.3,68.1,30.06,SE,135,8.0,8.0,96,0.00,,,0.16,Wunderground v.1.15,2013-04-22 13:15:00,
2013-04-22 09:20:00,69.6,68.7,30.07,ESE,121,7.0,7.0,97,0.00,,,0.16,Wunderground v.1.15,2013-04-22 13:20:00,
2013-04-22 09:30:00,69.7,68.0,30.07,ESE,122,7.0,11.0,94,0.00,,,0.16,weatherlink.com 1.10,2013-04-22 13:30:00,
2013-04-22 09:35:00,70.2,68.7,30.07,ESE,110,7.0,7.0,95,0.00,,,0.16,Wunderground v.1.15,2013-04-22 13:35:00,
2013-04-22 09:40:00,70.3,68.2,30.07,SE,128,7.0,7.0,93,0.00,,,0.16,Wunderground v.1.15,2013-04-22 13:40:00,
2013-04-22 09:45:00,70.3,68.2,30.07,ESE,117,7.0,7.0,93,0.00,,,0.16,Wunderground v.1.15,2013-04-22 13:45:00,
2013-04-22 09:55:00,71.2,69.1,30.07,ESE,114,5.0,6.0,93,0.00,,,0.16,Wunderground v.1.15,2013-04-22 13:55:00,
2013-04-22 10:00:00,71.6,69.2,30.07,ESE,111,4.0,4.0,92,0.00,,,0.16,Wunderground v.1.15,2013-04-22 14:00:00,
2013-04-22 10:05:00,72.2,69.1,30.07,SE,127,4.0,5.0,90,0.00,,,0.16,Wunderground v.1.15,2013-04-22 14:05:00,
2013-04-22 10:10:00,72.3,68.5,30.08,ESE,112,5.0,7.0,88,0.00,,,0.16,Wunderground v.1.15,2013-04-22 14:10:00,
2013-04-22 10:19:00,72.6,69.0,30.08,SE,139,3.0,11.0,87,0.00,,,0.16,weatherlink.com 1.10,2013-04-22 14:19:00,
2013-04-22 10:25:00,72.6,68.8,30.08,SE,139,6.0,10.0,88,0.00,,,0.16,Wunderground v.1.15,2013-04-22 14:25:00,
2013-04-22 10:30:00,72.5,68.7,30.08,ESE,109,7.0,9.0,88,0.00,,,0.16,Wunderground v.1.15,2013-04-22 14:30:00,
2013-04-22 10:36:00,72.4,69.0,30.09,ESE,106,7.0,9.0,89,0.00,,,0.16,weatherlink.com 1.10,2013-04-22 14:36:00,
2013-04-22 10:45:00,72.2,69.1,30.09,ESE,103,6.0,8.0,90,0.00,,,0.16,Wunderground v.1.15,2013-04-22 14:45:00,
2013-04-22 10:50:00,72.0,68.6,30.10,ESE,105,5.0,5.0,89,0.00,,,0.16,Wunderground v.1.15,2013-04-22 14:50:00,
2013-04-22 10:55:00,71.8,68.7,30.10,SSW,194,5.0,5.0,90,0.00,,,0.16,Wunderground v.1.15,2013-04-22 14:55:00,
2013-04-22 11:00:00,71.6,68.2,30.10,SE,125,5.0,5.0,89,0.00,,,0.16,Wunderground v.1.15,2013-04-22 15:00:00,
2013-04-22 11:05:00,71.5,68.1,30.10,ESE,113,5.0,5.0,89,0.00,,,0.16,Wunderground v.1.15,2013-04-22 15:05:00,
2013-04-22 11:15:00,71.7,67.6,30.10,ESE,112,4.0,8.0,87,0.00,,,0.16,Wunderground v.1.15,2013-04-22 15:15:00,
2013-04-22 11:20:00,71.8,67.7,30.10,East,101,4.0,5.0,87,0.00,,,0.16,Wunderground v.1.15,2013-04-22 15:20:00,
2013-04-22 11:25:00,71.8,68.4,30.10,ESE,109,4.0,5.0,89,0.00,,,0.16,Wunderground v.1.15,2013-04-22 15:25:00,
2013-04-22 11:35:00,71.9,68.5,30.10,SE,135,3.0,4.0,89,0.00,,,0.16,Wunderground v.1.15,2013-04-22 15:35:00,
2013-04-22 11:40:00,71.8,68.1,30.10,ESE,114,4.0,4.0,88,0.00,,,0.16,Wunderground v.1.15,2013-04-22 15:40:00,
2013-04-22 11:45:00,71.7,68.3,30.10,SE,127,5.0,5.0,89,0.00,,,0.16,Wunderground v.1.15,2013-04-22 15:45:00,
2013-04-22 11:50:00,71.9,69.1,30.10,ESE,122,3.0,3.0,91,0.00,,,0.16,Wunderground v.1.15,2013-04-22 15:50:00,
2013-04-22 11:55:00,72.1,68.3,30.10,ESE,116,3.0,6.0,88,0.00,,,0.16,Wunderground v.1.15,2013-04-22 15:55:00,
2013-04-22 12:05:00,72.4,68.6,30.10,ESE,114,5.0,5.0,88,0.00,,,0.16,Wunderground v.1.15,2013-04-22 16:05:00,
2013-04-22 12:10:00,72.9,69.1,30.10,ESE,109,4.0,5.0,88,0.00,,,0.16,Wunderground v.1.15,2013-04-22 16:10:00,
2013-04-22 12:15:00,73.1,68.7,30.09,ESE,110,3.0,7.0,86,0.00,,,0.16,Wunderground v.1.15,2013-04-22 16:15:00,
2013-04-22 12:20:00,73.1,69.0,30.09,ESE,123,4.0,7.0,87,0.00,,,0.16,Wunderground v.1.15,2013-04-22 16:20:00,
2013-04-22 12:30:00,72.7,67.6,30.09,ESE,111,3.0,4.0,84,0.00,,,0.16,Wunderground v.1.15,2013-04-22 16:30:00,
2013-04-22 12:35:00,72.7,68.3,30.09,ESE,110,3.0,5.0,86,0.00,,,0.16,Wunderground v.1.15,2013-04-22 16:35:00,
2013-04-22 12:40:00,73.0,68.2,30.09,SSE,153,3.0,5.0,85,0.00,,,0.16,Wunderground v.1.15,2013-04-22 16:40:00,
2013-04-22 12:45:00,73.1,67.6,30.08,ESE,103,3.0,7.0,83,0.00,,,0.16,Wunderground v.1.15,2013-04-22 16:45:00,
2013-04-22 12:50:00,73.3,67.8,30.08,ESE,105,4.0,7.0,83,0.00,,,0.16,Wunderground v.1.15,2013-04-22 16:50:00,
2013-04-22 13:00:00,73.6,68.5,30.08,ESE,105,4.0,4.0,84,0.00,,,0.16,Wunderground v.1.15,2013-04-22 17:00:00,
2013-04-22 13:05:00,74.2,68.7,30.08,ESE,102,3.0,5.0,83,0.00,,,0.16,Wunderground v.1.15,2013-04-22 17:05:00,
2013-04-22 13:10:00,74.4,68.5,30.08,ESE,115,3.0,3.0,82,0.00,,,0.16,Wunderground v.1.15,2013-04-22 17:10:00,
2013-04-22 13:19:00,75.3,69.0,30.07,East,101,2.0,6.0,82,0.00,,,0.16,weatherlink.com 1.10,2013-04-22 17:19:00,
2013-04-22 13:25:00,75.3,68.7,30.07,ESE,112,4.0,4.0,80,0.00,,,0.16,Wunderground v.1.15,2013-04-22 17:25:00,
2013-04-22 13:30:00,75.4,68.4,30.07,ESE,106,4.0,7.0,79,0.00,,,0.16,Wunderground v.1.15,2013-04-22 17:30:00,
2013-04-22 13:35:00,75.7,69.5,30.07,ESE,109,4.0,7.0,81,0.00,,,0.16,Wunderground v.1.15,2013-04-22 17:35:00,
2013-04-22 13:40:00,75.9,69.3,30.06,ESE,110,4.0,5.0,80,0.00,,,0.16,Wunderground v.1.15,2013-04-22 17:40:00,
2013-04-22 13:50:00,76.2,68.5,30.06,SE,125,4.0,4.0,77,0.00,,,0.16,Wunderground v.1.15,2013-04-22 17:50:00,
2013-04-22 13:55:00,76.7,69.3,30.06,ESE,118,3.0,4.0,78,0.00,,,0.16,Wunderground v.1.15,2013-04-22 17:55:00,
2013-04-22 14:00:00,77.2,69.0,30.06,East,91,3.0,4.0,76,0.00,,,0.16,Wunderground v.1.15,2013-04-22 18:00:00,
2013-04-22 14:05:00,76.7,68.2,30.05,ESE,123,5.0,5.0,75,0.00,,,0.16,Wunderground v.1.15,2013-04-22 18:05:00,
2013-04-22 14:15:00,76.5,68.7,30.05,ESE,112,6.0,10.0,77,0.00,,,0.16,Wunderground v.1.15,2013-04-22 18:15:00,
2013-04-22 14:20:00,76.4,68.7,30.05,ESE,117,5.0,5.0,77,0.00,,,0.16,Wunderground v.1.15,2013-04-22 18:20:00,
2013-04-22 14:25:00,76.5,69.5,30.05,ESE,109,4.0,9.0,79,0.00,,,0.16,Wunderground v.1.15,2013-04-22 18:25:00,
2013-04-22 14:30:00,76.4,69.4,30.05,ESE,121,5.0,6.0,79,0.00,,,0.16,Wunderground v.1.15,2013-04-22 18:30:00,
2013-04-22 14:35:00,76.5,69.9,30.04,ESE,116,6.0,6.0,80,0.00,,,0.16,Wunderground v.1.15,2013-04-22 18:35:00,
2013-04-22 14:40:00,76.7,71.1,30.04,ESE,119,6.0,10.0,83,0.00,,,0.16,Wunderground v.1.15,2013-04-22 18:40:00,
2013-04-22 14:45:00,76.9,69.9,30.04,ESE,109,6.0,10.0,79,0.00,,,0.16,Wunderground v.1.15,2013-04-22 18:45:00,
2013-04-22 14:55:00,77.3,68.4,30.04,East,92,4.0,5.0,74,0.00,,,0.16,Wunderground v.1.15,2013-04-22 18:55:00,
2013-04-22 15:00:00,77.6,68.7,30.04,East,89,3.0,3.0,74,0.00,,,0.16,Wunderground v.1.15,2013-04-22 19:00:00,
2013-04-22 15:05:00,77.7,68.0,30.03,ESE,113,3.0,3.0,72,0.00,,,0.16,Wunderground v.1.15,2013-04-22 19:05:00,
2013-04-22 15:14:00,77.8,68.0,30.03,East,96,0.0,9.0,73,0.00,,,0.16,weatherlink.com 1.10,2013-04-22 19:14:00,
2013-04-22 15:20:00,78.5,68.3,30.03,ESE,110,2.0,2.0,71,0.00,,,0.16,Wunderground v.1.15,2013-04-22 19:20:00,
2013-04-22 15:25:00,78.5,69.1,30.03,ESE,108,2.0,2.0,73,0.00,,,0.16,Wunderground v.1.15,2013-04-22 19:25:00,
2013-04-22 15:30:00,78.8,69.4,30.02,East,90,2.0,2.0,73,0.00,,,0.16,Wunderground v.1.15,2013-04-22 19:30:00,
2013-04-22 15:35:00,79.0,68.4,30.02,ESE,108,2.0,5.0,70,0.00,,,0.16,Wunderground v.1.15,2013-04-22 19:35:00,
2013-04-22 15:45:00,78.2,68.8,30.01,East,100,2.0,2.0,73,0.00,,,0.16,Wunderground v.1.15,2013-04-22 19:45:00,
2013-04-22 15:50:00,78.5,68.7,30.01,ESE,117,1.0,1.0,72,0.00,,,0.16,Wunderground v.1.15,2013-04-22 19:50:00,
2013-04-22 15:55:00,78.2,68.8,30.01,ESE,115,1.0,3.0,73,0.00,,,0.16,Wunderground v.1.15,2013-04-22 19:55:00,
2013-04-22 16:00:00,78.1,68.7,30.01,East,99,2.0,3.0,73,0.00,,,0.16,Wunderground v.1.15,2013-04-22 20:00:00,
2013-04-22 16:05:00,78.0,68.6,30.00,ESE,105,3.0,4.0,73,0.00,,,0.16,Wunderground v.1.15,2013-04-22 20:05:00,
2013-04-22 16:15:00,78.0,67.8,30.00,ESE,104,3.0,3.0,71,0.00,,,0.16,Wunderground v.1.15,2013-04-22 20:15:00,
2013-04-22 16:20:00,77.9,69.7,30.00,SE,124,2.0,5.0,76,0.00,,,0.16,Wunderground v.1.15,2013-04-22 20:20:00,
2013-04-22 16:25:00,76.7,69.3,30.00,East,101,3.0,5.0,78,1.60,,,0.22,Wunderground v.1.15,2013-04-22 20:25:00,
2013-04-22 16:30:00,75.3,68.7,30.00,ESE,117,3.0,8.0,80,0.18,,,0.26,Wunderground v.1.15,2013-04-22 20:30:00,
2013-04-22 16:36:00,74.5,69.0,30.00,ESE,113,4.0,10.0,82,0.11,,,0.27,weatherlink.com 1.10,2013-04-22 20:36:00,
2013-04-22 16:45:00,73.0,67.9,30.01,ESE,105,4.0,5.0,84,0.06,,,0.27,Wunderground v.1.15,2013-04-22 20:45:00,
2013-04-22 16:50:00,72.9,68.1,30.01,East,99,2.0,2.0,85,0.04,,,0.27,Wunderground v.1.15,2013-04-22 20:50:00,
2013-04-22 16:55:00,72.9,68.5,30.01,East,100,2.0,2.0,86,0.00,,,0.27,Wunderground v.1.15,2013-04-22 20:55:00,
2013-04-22 17:05:00,73.3,68.5,30.01,ESE,108,2.0,2.0,85,0.00,,,0.27,Wunderground v.1.15,2013-04-22 21:05:00,
2013-04-22 17:10:00,73.7,68.2,30.01,ESE,122,3.0,4.0,83,0.00,,,0.27,Wunderground v.1.15,2013-04-22 21:10:00,
2013-04-22 17:15:00,73.9,68.1,30.01,East,85,5.0,9.0,82,0.00,,,0.27,Wunderground v.1.15,2013-04-22 21:15:00,
2013-04-22 17:20:00,74.0,68.5,30.01,ESE,113,6.0,7.0,83,0.00,,,0.27,Wunderground v.1.15,2013-04-22 21:20:00,
2013-04-22 17:25:00,73.6,68.5,30.02,ESE,122,6.0,7.0,84,0.00,,,0.27,Wunderground v.1.15,2013-04-22 21:25:00,
2013-04-22 17:30:00,73.3,69.5,30.02,ESE,104,6.0,6.0,88,0.00,,,0.27,Wunderground v.1.15,2013-04-22 21:30:00,
2013-04-22 17:35:00,72.9,68.5,30.02,ESE,112,5.0,6.0,86,0.00,,,0.27,Wunderground v.1.15,2013-04-22 21:35:00,
2013-04-22 17:41:00,72.9,69.0,30.02,ESE,108,8.0,9.0,87,0.00,,,0.27,weatherlink.com 1.10,2013-04-22 21:41:00,
2013-04-22 17:50:00,72.5,68.1,30.02,East,98,8.0,8.0,86,0.00,,,0.27,Wunderground v.1.15,2013-04-22 21:50:00,
2013-04-22 17:55:00,72.6,68.2,30.02,SE,124,8.0,8.0,86,0.00,,,0.27,Wunderground v.1.15,2013-04-22 21:55:00,
2013-04-22 18:05:00,72.4,67.6,30.02,ESE,117,7.0,7.0,85,0.00,,,0.27,Wunderground v.1.15,2013-04-22 22:05:00,
2013-04-22 18:10:00,72.4,66.9,30.02,ESE,117,6.0,7.0,83,0.00,,,0.27,Wunderground v.1.15,2013-04-22 22:10:00,
2013-04-22 18:15:00,72.6,67.1,30.03,SE,126,6.0,6.0,83,0.00,,,0.27,Wunderground v.1.15,2013-04-22 22:15:00,
2013-04-22 18:20:00,72.8,67.7,30.03,ESE,120,5.0,6.0,84,0.00,,,0.27,Wunderground v.1.15,2013-04-22 22:20:00,
2013-04-22 18:25:00,72.9,66.7,30.03,East,101,6.0,6.0,81,0.00,,,0.27,Wunderground v.1.15,2013-04-22 22:25:00,
2013-04-22 18:30:00,72.7,67.2,30.03,ESE,106,6.0,6.0,83,0.00,,,0.27,Wunderground v.1.15,2013-04-22 22:30:00,
2013-04-22 18:40:00,72.3,67.5,30.03,ESE,120,5.0,8.0,85,0.00,,,0.27,Wunderground v.1.15,2013-04-22 22:40:00,
2013-04-22 18:45:00,72.0,67.2,30.03,ESE,112,6.0,9.0,85,0.00,,,0.27,Wunderground v.1.15,2013-04-22 22:45:00,
2013-04-22 18:50:00,71.7,67.6,30.03,ESE,113,6.0,12.0,87,0.00,,,0.27,Wunderground v.1.15,2013-04-22 22:50:00,
2013-04-22 18:55:00,71.1,67.0,30.03,ESE,121,6.0,7.0,87,0.00,,,0.27,Wunderground v.1.15,2013-04-22 22:55:00,
2013-04-22 19:00:00,70.7,66.6,30.04,SE,127,6.0,6.0,87,0.00,,,0.27,Wunderground v.1.15,2013-04-22 23:00:00,
2013-04-22 19:05:00,70.4,66.7,30.04,ESE,115,5.0,7.0,88,0.00,,,0.27,Wunderground v.1.15,2013-04-22 23:05:00,
2013-04-22 19:15:00,70.1,66.4,30.03,East,100,5.0,5.0,88,0.00,,,0.27,Wunderground v.1.15,2013-04-22 23:15:00,
2013-04-22 19:20:00,70.0,66.3,30.04,ESE,118,4.0,7.0,88,0.00,,,0.27,Wunderground v.1.15,2013-04-22 23:20:00,
2013-04-22 19:25:00,69.7,66.0,30.04,SSE,160,5.0,7.0,88,0.00,,,0.27,Wunderground v.1.15,2013-04-22 23:25:00,
2013-04-22 19:30:00,69.5,65.8,30.05,SE,129,5.0,5.0,88,0.00,,,0.27,Wunderground v.1.15,2013-04-22 23:30:00,
2013-04-22 19:35:00,69.3,65.6,30.04,SSE,158,6.0,6.0,88,0.00,,,0.27,Wunderground v.1.15,2013-04-22 23:35:00,
2013-04-22 19:45:00,69.1,65.7,30.04,ESE,102,4.0,9.0,89,0.00,,,0.27,Wunderground v.1.15,2013-04-22 23:45:00,
2013-04-22 19:50:00,68.9,65.5,30.05,ESE,115,6.0,12.0,89,0.00,,,0.27,Wunderground v.1.15,2013-04-22 23:50:00,
2013-04-22 19:55:00,68.8,65.4,30.05,ESE,113,7.0,12.0,89,0.00,,,0.27,Wunderground v.1.15,2013-04-22 23:55:00,
2013-04-22 20:00:00,68.7,65.6,30.05,ESE,118,7.0,7.0,90,0.00,,,0.27,Wunderground v.1.15,2013-04-23 00:00:00,
2013-04-22 20:08:00,68.5,65.0,30.06,SE,141,3.0,11.0,90,0.00,,,0.27,weatherlink.com 1.10,2013-04-23 00:08:00,
2013-04-22 20:15:00,68.3,64.9,30.06,ESE,102,6.0,9.0,89,0.00,,,0.27,Wunderground v.1.15,2013-04-23 00:15:00,
2013-04-22 20:20:00,68.2,64.8,30.06,SE,135,5.0,5.0,89,0.00,,,0.27,Wunderground v.1.15,2013-04-23 00:20:00,
2013-04-22 20:25:00,68.2,65.2,30.06,SE,131,5.0,5.0,90,0.00,,,0.27,Wunderground v.1.15,2013-04-23 00:25:00,
2013-04-22 20:35:00,68.1,65.4,30.07,ESE,109,5.0,5.0,91,0.00,,,0.27,Wunderground v.1.15,2013-04-23 00:35:00,
2013-04-22 20:40:00,68.0,65.0,30.07,East,101,4.0,4.0,90,0.00,,,0.27,Wunderground v.1.15,2013-04-23 00:40:00,
2013-04-22 20:45:00,68.0,65.0,30.07,ESE,114,4.0,5.0,90,0.00,,,0.27,Wunderground v.1.15,2013-04-23 00:45:00,
2013-04-22 20:50:00,67.9,64.9,30.07,WNW,295,4.0,4.0,90,0.00,,,0.27,Wunderground v.1.15,2013-04-23 00:50:00,
2013-04-22 20:57:00,67.8,65.0,30.08,ESE,108,4.0,10.0,90,0.00,,,0.27,weatherlink.com 1.10,2013-04-23 00:57:00,
2013-04-22 21:05:00,67.7,64.7,30.08,SE,127,3.0,4.0,90,0.00,,,0.27,Wunderground v.1.15,2013-04-23 01:05:00,
2013-04-22 21:13:00,67.7,65.0,30.08,SE,128,5.0,8.0,90,0.00,,,0.27,weatherlink.com 1.10,2013-04-23 01:13:00,
2013-04-22 21:20:00,67.7,65.0,30.08,ESE,115,5.0,5.0,91,0.00,,,0.27,Wunderground v.1.15,2013-04-23 01:20:00,
2013-04-22 21:25:00,67.9,65.2,30.08,ESE,107,4.0,5.0,91,0.00,,,0.27,Wunderground v.1.15,2013-04-23 01:25:00,
2013-04-22 21:30:00,67.8,64.8,30.08,SE,140,4.0,5.0,90,0.00,,,0.27,Wunderground v.1.15,2013-04-23 01:30:00,
2013-04-22 21:35:00,67.7,64.7,30.09,ESE,117,4.0,5.0,90,0.00,,,0.27,Wunderground v.1.15,2013-04-23 01:35:00,
2013-04-22 21:45:00,67.5,64.8,30.09,ESE,103,5.0,9.0,91,0.00,,,0.27,Wunderground v.1.15,2013-04-23 01:45:00,
2013-04-22 21:50:00,67.3,64.6,30.09,ESE,122,6.0,6.0,91,0.00,,,0.27,Wunderground v.1.15,2013-04-23 01:50:00,
2013-04-22 21:55:00,67.2,64.8,30.10,ESE,113,6.0,6.0,92,0.00,,,0.27,Wunderground v.1.15,2013-04-23 01:55:00,
2013-04-22 22:00:00,67.2,64.5,30.10,ESE,115,6.0,8.0,91,0.00,,,0.27,Wunderground v.1.15,2013-04-23 02:00:00,
2013-04-22 22:05:00,66.9,64.5,30.10,ESE,103,7.0,8.0,92,0.00,,,0.27,Wunderground v.1.15,2013-04-23 02:05:00,
2013-04-22 22:15:00,67.0,64.6,30.10,ESE,116,5.0,8.0,92,0.00,,,0.27,Wunderground v.1.15,2013-04-23 02:15:00,
2013-04-22 22:20:00,66.8,64.4,30.10,ESE,110,5.0,5.0,92,0.00,,,0.27,Wunderground v.1.15,2013-04-23 02:20:00,
2013-04-22 22:25:00,66.8,64.7,30.10,SE,127,5.0,5.0,93,0.00,,,0.27,Wunderground v.1.15,2013-04-23 02:25:00,
2013-04-22 22:30:00,66.6,64.2,30.10,SE,139,5.0,6.0,92,0.00,,,0.27,Wunderground v.1.15,2013-04-23 02:30:00,
2013-04-22 22:35:00,66.5,64.4,30.10,ESE,122,4.0,7.0,93,0.00,,,0.27,Wunderground v.1.15,2013-04-23 02:35:00,
2013-04-22 22:45:00,66.5,64.1,30.09,ESE,109,3.0,6.0,92,0.00,,,0.27,Wunderground v.1.15,2013-04-23 02:45:00,
2013-04-22 22:50:00,66.6,64.5,30.10,ESE,122,4.0,4.0,93,0.00,,,0.27,Wunderground v.1.15,2013-04-23 02:50:00,
2013-04-22 22:55:00,66.7,64.6,30.10,ESE,113,4.0,6.0,93,0.00,,,0.27,Wunderground v.1.15,2013-04-23 02:55:00,
2013-04-22 23:00:00,66.6,64.2,30.10,SE,125,3.0,4.0,92,0.00,,,0.27,Wunderground v.1.15,2013-04-23 03:00:00,
2013-04-22 23:05:00,66.6,64.2,30.10,ESE,121,4.0,5.0,92,0.00,,,0.27,Wunderground v.1.15,2013-04-23 03:05:00,
2013-04-22 23:15:00,66.7,64.6,30.10,ESE,105,3.0,4.0,93,0.00,,,0.27,Wunderground v.1.15,2013-04-23 03:15:00,
2013-04-22 23:20:00,66.7,64.6,30.10,ESE,111,3.0,4.0,93,0.00,,,0.27,Wunderground v.1.15,2013-04-23 03:20:00,
2013-04-22 23:25:00,66.7,64.3,30.10,ESE,115,4.0,4.0,92,0.00,,,0.27,Wunderground v.1.15,2013-04-23 03:25:00,
2013-04-22 23:30:00,66.6,64.2,30.10,SE,129,4.0,4.0,92,0.00,,,0.27,Wunderground v.1.15,2013-04-23 03:30:00,
2013-04-22 23:35:00,66.6,64.2,30.10,ESE,106,3.0,4.0,92,0.00,,,0.27,Wunderground v.1.15,2013-04-23 03:35:00,
2013-04-22 23:40:00,66.6,64.2,30.10,ESE,121,3.0,3.0,92,0.00,,,0.27,Wunderground v.1.15,2013-04-23 03:40:00,
2013-04-22 23:50:00,66.6,64.5,30.10,ESE,117,3.0,5.0,93,0.00,,,0.27,Wunderground v.1.15,2013-04-23 03:50:00,
2013-04-22 23:55:00,66.5,64.4,30.10,ESE,112,3.0,5.0,93,0.00,,,0.27,Wunderground v.1.15,2013-04-23 03:55:00,